Погода в Юрьевеце

Погода в Юрьевеце : погода сейчас, прогноз погоды и архив. Всё, что Вы хотите узнать о погоде в Юрьевеце!

Хотите узнать прогноз погоды в Юрьевеце? Тогда Вам сюда: Погода в Юрьевеце

Поиск расширенной информации на нашем сайте:

Другие новости

Новости СМИ2

Главная страница сайта

Новости сайта

03.07.2017

Напоминаем, что на нашем специализированном сайте Метеоцентр.Азия вы можете получить высокодетализированные автоматические прогнозы погоды по пунктам России, СНГ и мира в авиационном формате (включающие направление и скорость ветра, видимость, явления погоды, количество и форму облачности, нижнюю и верхнюю границу облачности).

Рекомендуем: http://krovat-divan.ru/ недорогие экологичные диван кровати.

Погода в Юрьевеце - сегодня

Время (UTC), дата Ветер
(°,м/с) 
Видим.   Явления Облачность Т
(°С)
Тd
(°С)
f(%) Тe
(°С)
Pmin
(гПа)
dP
(гПа)
Po
(мм)
O2
(г/м3)
Тmin Tmax R s Состояние
почвы
18 19.07.17 260 (З) 20000 м    8/4 600 м средняя 
[Cu med, cong|Ac trans]
+14.8 +11.7 82 +19  1015.3  0.7  750  284           
21 19.07.17 240 (ЮЗ) 10 км    8/0 средняя 
[Ac As]
+11.7 +10.8 94 +15  1015.7  0.2  750  288           
00 20.07.17 тихо ()   10 км    8/1 600 м средняя 
[Cu med, cong|Ac As]
+11.5 +10.6 94 +13  1015.9  0.2  750  288           
03 20.07.17 тихо ()   20000 м    8/0 средняя 
[Ac trans]
+14.7 +13.8 94 +21  1015.9  0.2  750  284  +11         
06 20.07.17 110 (В) 20000 м    9/3 600 м средняя 
[Cu med, cong|Ac trans]
+19.7 +11.3 58 +24  1015.7  750  280           
09 20.07.17 150 (ЮВ) 10 км    8/3 600 м средняя 
[Cu med, cong|Ac trans]
+19.2 +13.2 68 +27  1015.3  -0.4  750  280           
12 20.07.17 200 (Ю) 20000 м    9/4 600 м средняя 
[Cu med, cong|Ac trans]
+22.1 +10.6 48 +24  1014.1  -1  749  277           
15 20.07.17 140 (ЮВ) 4000 м  слаб. ливневой дождь  8/8 300 м кучево-дожд. 
[Cb cap]
+21.1 +12.8 59 +26  1013.6  -0.5  749  278    +22.5  0.3     
18 20.07.17 030 (СВ) 10 км  {ливн. осадки}  8/6 300 м кучево-дожд., верхняя 
[Cb cap|Ci fib]
+14.1 +12.3 89 +19  1014.5  0.6  749  285           
21 20.07.17 150 (ЮВ) 10 км    4/4 600 м 
[Sc]
+14.6 +11.8 83 +20  1014.2  0.6  749  284           
00 21.07.17 120 (ЮВ) 10 км    8/8 600 м 
[Sc]
+15.2 +12.9 86 +22  1013.7  -0.4  749  283           
03 21.07.17 290 (З) 10 км    8/4 600 м верхняя 
[Sc|Ci fib]
+15.6 +14.1 91 +24  1013.7  749  282  +11.9    0.0     
06 21.07.17 080 (В) 10 км    9/5 600 м средняя 
[Cu med, cong|Ac trans]
+18.8 +14.5 76 +28  1013.2  -0.3  748  279           
09 21.07.17 150 (ЮВ) 10 км    8/6 300 м кучево-дожд., средняя 
[Cb cap|Ac trans]
+20 +11.7 59 +24  1011.6  -1.5  747  278           
12 21.07.17 050 (СВ) 10 км  гроза без осадков{ливн. осадки}  9/9 300 м кучево-дожд. 
[Cb cap]
+14.7 +13.8 94 +23  1012.3  0.4  747  283           
15 21.07.17 040 (СВ) 10 км  {гроза}  8/0 средняя, верхняя 
[Ac As|Ci sp]
+18.6 +12.4 67 +25  1011.3  -0.8  747  279    +21.2  10     
18 21.07.17 200 (Ю) 10 км  дымка{гроза}  8/8 300 м кучево-дожд. 
[Cb cap]
+13.1 +11.9 92 +18  1011.8  0.3  747  285           
21 21.07.17 230 (ЮЗ) 10 км    4/4 300 м 
[Sc]
+12.8 +10.6 86 +15  1011.9  747  286           
00 22.07.17 260 (З) 10 км    10/10 300 м 
[Sc]
+11 +9.9 93 +12  1012.2  0.2  747  288           
03 22.07.17 290 (З) 10 км    8/8 300 м 
[Sc]
+12.8 +11.5 92 +16  1012.3  0.2  747  285  +10.9         
06 22.07.17 300 (СЗ) 10 км    10/10 300 м 
[Sc]
+14.2 +11.6 84 +17  1013.3  1.1  748  284           
09 22.07.17 270 (З) 10 км    8/8 600 м кучево-дожд., верхняя 
[Cb cap|Ci fib]
+19.3 +12.9 66 +25  1013.5  0.5  749  279           
12 22.07.17 280 (З) 10 км    8/5 600 м кучево-дожд., средняя 
[Cb cap|Ac trans]
+20.2 +12.6 62 +25  1012.8  -0.7  748  278           
15 22.07.17 260 (З) 10 км    8/4 600 м средняя, верхняя 
[Cu med, cong|Ac trans|Ci fib]
+19.8 +12.8 64 +26  1012.6  -0.2  748  278    +21       
18 22.07.17 220 (ЮЗ) 10 км    6/3 600 м средняя 
[Cu med, cong|Ac trans]
+16.8 +12.4 75 +23  1012.6  0.1  748  281           
Время (UTC), дата Ветер
(°,м/с) 
Видим.   Явления Облачность Т
(°С)
Тd
(°С)
f(%) Тe
(°С)
Pmin
(гПа)
dP
(гПа)
Po
(мм)
O2
(г/м3)
Тmin Tmax R s Состояние
почвы

Для получения пояснительной информации подведите курсор к названию столбца.

ПОГОДА в Юрьевеце - архив

Всё, что Вы хотите узнать о погоде в Юрьевеце - удобно и подробно!

Выберите нужную дату (начиная с 1 января 2015* года) и нажмите кнопку "Найти".
Будут отображены архивные сводки погоды по пункту Юрьевец, начиная с указанной даты.


Отображать данные в формате CSV (для использования в таблицах Excel)


Внимание! Наш архив погоды предназначен исключительно для личного некоммерческого использования в познавательных целях. Если Вам необходимы официальные справки о состоянии погоды (для производственных, юридических, коммерческих и т.п. целей), обращайтесь в органы Росгидромета.

*Примечание: данная дата относится к архиву по метеостанциям СССР (Россия, СНГ, Балтия).
Архив по метеостанциям Зарубежной Европы и Азии (кроме Китая) хранится 10 дней, по другим регионам земного шара (Китай, Африка, Америка, Австралия, Океания) - 1 день.

Юрьевец - район местоположения метеостанции


Название, широта, долгота, высота метеостанции:
Юрьевец 57.3°ш. 43.1°д. 132 м над ур. моря [Российская Федерация]

Дополнительная информация

В oтличие oт бoльшинства пoгoдных сайтoв мы публикуем пoдрoбную метеoинфoрмацию в детальнoм прoфессиoнальнoм фoрмате.

Характеристики температуры и влажнoсти вoздуха измеряются на высoте 2 м в тени вдали oт зданий и деревьев.
Скoрoсть ветра измеряется на высoте 10 м (на урoвне рoста челoвека скoрoсть ветра ниже в 1.5-2 раза). Если метеoстанция нахoдится в гoрoде или в лесу, тo скoрoсть ветра занижена на 2-4 м/с пo сравнению с oткрытым местoм. Скoрoсть ветра над акватoриями крупных рек и oзёр, а также на вершинах хoлмoв на 2-5 м/с выше, чем в oбычных услoвиях.
Атмoсфернoе давление в разных тoчках местнoсти мoжет значительнo oтличаться oт давления на метеoстанции, в зависимoсти oт услoвий рельефа (при пoдъёме на 10 м давление пoнижается примернo на 1 мм рт.ст.).